Flag for Switzerland Weather past 2 weeks in Yverdon-les-Bains, Vaud, Switzerland

Now
66 °F

Mild.


Feels Like: 66 °F
Forecast: 47 / 70 °F
Wind: 12 mph from Southwest

Location: Payerne

Current Time: Jul 29, 2015 at 2:01:20 PM

Latest Report: Jul 29, 2015 at 1:00 PM


Visibility: N/A

Pressure: 29.84 "Hg

Humidity: 74%

Dew point: 58 °F

Location of Yverdon-les-BainsLocation

Historic Weather in Yverdon-les-Bains — Graph

°F

Yverdon-les-Bains temperature yesterday

Maximum temperature yesterday: 73 °F (at 5:00 PM)
Minimum temperature yesterday: 60 °F (at 6:00 AM)
Average temperature yesterday: 66 °F

Past Weeks' High & Low Weather Summary

 TemperatureHumidityPressure
High95 °F (Jul 16, 4:00 PM)95% (Jul 23, 2:00 AM)30.17 "Hg (Jul 23, 2:00 AM)
Low49 °F (Jul 26, 5:00 AM)15% (Jul 16, 4:00 PM)29.64 "Hg (Jul 24, 7:00 PM)
Average72 °F60%29.94 "Hg
* Reported Jul 14 12:00 Noon — Jul 29 12:00 Noon, Yverdon-les-Bains, Weather by CustomWeather, © 2015

Note: Actual official high and low records may vary slightly from our data, if they occured in-between our weather recording intervals... More about our weather records

Advertising

Yverdon-les-Bains weather history for previous 24 hours

 ConditionsComfort  
Time TempWeatherWind HumidityBarometerVisibility
12:00 PM
Wed, Jul 29
65 °FMild.12 mph73%29.85 "HgN/A
11:00 AM63 °FOvercast.7 mph80%29.85 "Hg10 mi
10:00 AM59 °FCool.2 mph89%29.88 "HgN/A
9:00 AM60 °FCool.No wind80%29.86 "HgN/A
8:00 AM60 °FOvercast.1 mph78%29.86 "Hg11 mi
7:00 AM58 °FCool.1 mph83%29.87 "HgN/A
6:00 AM59 °FCool.1 mph81%29.89 "HgN/A
5:00 AM60 °FCool.2 mph73%29.89 "HgN/A
4:00 AM60 °FCool.2 mph74%29.91 "HgN/A
3:00 AM60 °FCool.2 mph73%29.90 "HgN/A
2:00 AM58 °FFog.3 mph81%29.92 "Hg7 mi
1:00 AM59 °FCool.2 mph76%29.92 "HgN/A
12:00 AM58 °FCool.2 mph81%29.94 "HgN/A
10:00 PM
Tue, Jul 28
66 °FMild.2 mph48%29.89 "HgN/A
9:00 PM67 °FMild.5 mph45%29.86 "HgN/A
8:00 PM68 °FOvercast.8 mph44%29.84 "Hg14 mi
7:00 PM70 °FMild.9 mph43%29.82 "HgN/A
6:00 PM72 °FMild.10 mph40%29.81 "HgN/A
5:00 PM73 °FMild.10 mph39%29.81 "HgN/A
4:00 PM71 °FMild.12 mph41%29.83 "HgN/A
3:00 PM72 °FMild.10 mph41%29.83 "HgN/A
2:00 PM70 °FOvercast.9 mph44%29.85 "Hg18 mi
Weather by CustomWeather, © 2015

See weather overviewHow to use our weather pages